User: anonymous   Login
Location: Bern
(46.9167°N, 7.4667°E)
Time: 19:38:53
(UTC+01:00)
Language:

ISS - Orbit

View from above orbital plane
View from above orbital plane
View from above satellite
View from above satellite

Ground track
Ground track

The orbit data is extracted from the following two-line orbital elements,

1 25544U 98067A   22332.29584912  .00014652  00000-0  26131-3 0  9996
2 25544  51.6442 243.6030 0007067 122.8122  24.1689 15.50299359370637
Epoch (UTC): 28 November 2022 07:06:01
Eccentricity: 0.0007067
inclination: 51.6442°
perigee height: 411 km
apogee height: 420 km
right ascension of ascending node: 243.6030°
argument of perigee: 122.8122°
revolutions per day: 15.50299359
mean anomaly at epoch: 24.1689°
orbit number at epoch: 37063

The dashed part of the orbit path shows where the satellite is in the earth's shadow,  

DLR